Weather in Nizhnekamsk

Russia / Republic of Tatarstan     55°38′02″N   51°48′32″E
temp.,
°C
wind,
m/s
gust,
m/s
humid.,
%
clouds,
%
prec.,
mm/h
press.,
hPa
HPBL,
m
24 october, sun
sun2400:00+5ssw3775100 0.0 1010135
03:00+5ssw3983100 0.0 1009195
06:00+5sw498899 0.0 1008317
09:00+6wsw587938 0.2 1008586
12:00+8wsw796239 0.0 10091312
15:00+7wsw6106421 0.1 10101165
18:00+5w6117295 0.1 1011502
21:00+5w6965100 0.1 1012817
25 october, mon
mon2500:00+5w4764100 0.0 1012455
03:00+4sw2470100 0.0 1013192
06:00+3wsw2372100 0.0 101391
09:00+3wsw4487100 0.0 1014518
12:00+2nw6896100 0.3 1015617
15:00+2nnw7106292 0.4 10181165
18:000nnw511725 0.0 1022566
21:00−1nw411763 0.0 1023340
26 october, tue
tue2600:00−2wnw397734 0.0 1024246
03:00−2wsw3878100 0.0 1025244
06:00−1sw51274100 0.0 1024447
09:00+1sw71365100 0.0 1023746
12:00+3sw8135799 0.0 1021855
15:00+3wsw8136270 0.0 1020920
18:00+1wsw51272100 0.0 1020443
21:00+2wsw6117094 0.0 1020474
27 october, wed
wed2700:000sw41084100 0.0 1020286
03:000sw41084100 0.0 1020332
06:00−1sw41089100 0.0 1020256
09:00+2sw51175100 0.0 1020530
12:00+5sw61064100 0.0 1019699
15:00+5wsw61265100 0.0 1018632
18:00+3sw61368100 0.0 1017433
21:00+3sw6146992 0.0 1016404
28 october, thu
thu2800:00+3sw61471100 0.0 1015469
03:00+2sw71567100 0.0 1013503
06:00+2sw71463100 0.0 1012592
09:00+1sw81696100 0.6 1012660
12:00+2wsw81596100 1.3 1012694
15:00+5wsw81485100 1.3 1013888
18:00+5wsw71384100 0.1 1014672
21:00+5wsw71283100 0.1 1014580